TimeEST,TemperatureF,Dew PointF,Humidity,Sea Level PressureIn,VisibilityMPH,Wind Direction,Wind SpeedMPH,Gust SpeedMPH,PrecipitationIn,Events,Conditions,WindDirDegrees,DateUTC
12:51 AM,37.9,33.1,83,30.23,9.0,Calm,Calm,-,N/A,,Clear,0,2012-11-22 05:51:00
1:51 AM,39.0,33.1,79,30.22,10.0,South,3.5,-,N/A,,Clear,180,2012-11-22 06:51:00
2:51 AM,36.0,32.0,86,30.23,9.0,Calm,Calm,-,N/A,,Clear,0,2012-11-22 07:51:00
3:51 AM,37.0,32.0,82,30.22,9.0,South,4.6,-,N/A,,Clear,180,2012-11-22 08:51:00
4:51 AM,37.0,30.9,79,30.22,8.0,South,5.8,-,N/A,,Clear,170,2012-11-22 09:51:00
5:51 AM,39.0,32.0,76,30.22,8.0,South,5.8,-,N/A,,Clear,170,2012-11-22 10:51:00
6:51 AM,37.0,32.0,82,30.23,8.0,South,6.9,-,N/A,,Clear,170,2012-11-22 11:51:00
7:51 AM,39.2,33.8,81,30.21,7.0,South,6.9,-,N/A,,Mostly Cloudy,180,2012-11-22 12:51:00
8:51 AM,46.9,37.9,71,30.22,9.0,South,8.1,-,N/A,,Partly Cloudy,180,2012-11-22 13:51:00
9:51 AM,52.0,39.0,61,30.22,10.0,SSW,10.4,-,N/A,,Partly Cloudy,200,2012-11-22 14:51:00
10:51 AM,55.4,39.2,54,30.19,10.0,South,8.1,-,N/A,,Partly Cloudy,190,2012-11-22 15:51:00
11:51 AM,59.0,41.0,51,30.17,10.0,SSW,10.4,-,N/A,,Partly Cloudy,200,2012-11-22 16:51:00
12:51 PM,60.1,41.0,49,30.14,10.0,South,11.5,-,N/A,,Partly Cloudy,190,2012-11-22 17:51:00
1:51 PM,60.1,41.0,49,30.11,10.0,SSW,15.0,-,N/A,,Partly Cloudy,200,2012-11-22 18:51:00
2:51 PM,61.0,41.0,48,30.10,10.0,South,11.5,18.4,N/A,,Partly Cloudy,180,2012-11-22 19:51:00
3:51 PM,60.1,39.9,47,30.09,10.0,South,13.8,-,N/A,,Partly Cloudy,180,2012-11-22 20:51:00
4:51 PM,57.9,39.9,51,30.07,10.0,South,10.4,-,N/A,,Scattered Clouds,180,2012-11-22 21:51:00
5:51 PM,52.0,39.0,61,30.07,10.0,South,6.9,-,N/A,,Partly Cloudy,170,2012-11-22 22:51:00
6:51 PM,51.1,39.0,63,30.06,10.0,South,8.1,-,N/A,,Partly Cloudy,180,2012-11-22 23:51:00
7:51 PM,48.9,37.9,66,30.04,10.0,South,6.9,-,N/A,,Partly Cloudy,170,2012-11-23 00:51:00
8:51 PM,52.0,37.9,59,30.02,10.0,South,9.2,-,N/A,,Scattered Clouds,180,2012-11-23 01:51:00
9:51 PM,53.1,37.0,55,30.01,10.0,South,10.4,-,N/A,,Mostly Cloudy,180,2012-11-23 02:51:00
10:51 PM,54.0,37.9,55,29.98,10.0,South,13.8,-,0.00,Rain,Light Rain,190,2012-11-23 03:51:00
11:51 PM,54.0,37.9,55,29.95,10.0,South,13.8,19.6,0.00,,Mostly Cloudy,190,2012-11-23 04:51:00